| time (UTC) | temp F | wind direction | speed MPH | gust MPH | rain 1hr in | rain 24hr in | rain mn in | humidity % | barometer mb |
| 20260903224531 | 89 | 333 | 0.0 | 0.0 | 0.00 | 0.02 | 0.02 | 64 | 1011.6 |
| 20260903224102 | 89 | 333 | 0.0 | 0.0 | 0.00 | 0.02 | 0.02 | 64 | 1011.7 |
| 20260903223528 | 89 | 331 | 0.0 | 0.0 | 0.00 | 0.02 | 0.02 | 64 | 1011.6 |
| 20260903223043 | 89 | 333 | 0.0 | 0.0 | 0.00 | 0.02 | 0.02 | 65 | 1011.7 |
| 20260903222549 | 89 | 332 | 0.0 | 0.0 | 0.00 | 0.02 | 0.02 | 65 | 1011.7 |
| 20260903222040 | 89 | 331 | 0.0 | 0.0 | 0.00 | 0.02 | 0.02 | 65 | 1011.7 |
| 20260903221550 | 89 | 331 | 0.0 | 0.0 | 0.00 | 0.02 | 0.02 | 65 | 1011.7 |
| 20260903221047 | 89 | 334 | 0.0 | 0.0 | 0.00 | 0.02 | 0.02 | 65 | 1011.6 |
| 20260903220533 | 89 | 331 | 0.0 | 0.0 | 0.00 | 0.02 | 0.02 | 66 | 1011.7 |
| 20260903220031 | 89 | 333 | 0.0 | 0.0 | 0.00 | 0.02 | 0.02 | 66 | 1011.7 |
| 20260903215539 | 89 | 333 | 0.0 | 0.0 | 0.00 | 0.02 | 0.02 | 66 | 1011.8 |
| 20260903215033 | 89 | 334 | 0.0 | 0.0 | 0.00 | 0.02 | 0.02 | 65 | 1011.9 |
| 20260903214605 | 89 | 333 | 0.0 | 0.0 | 0.00 | 0.02 | 0.02 | 65 | 1011.8 |
| 20260903214035 | 89 | 333 | 0.0 | 0.0 | 0.00 | 0.02 | 0.02 | 65 | 1011.9 |
| 20260903213546 | 89 | 332 | 0.0 | 0.0 | 0.00 | 0.02 | 0.02 | 64 | 1011.9 |
| 20260903213055 | 89 | 332 | 0.0 | 0.0 | 0.00 | 0.02 | 0.02 | 65 | 1011.9 |
| 20260903212543 | 89 | 332 | 0.0 | 0.0 | 0.00 | 0.02 | 0.02 | 64 | 1012.0 |
| 20260903212031 | 89 | 331 | 0.0 | 0.0 | 0.00 | 0.02 | 0.02 | 65 | 1012.0 |
| 20260903211540 | 89 | 336 | 0.0 | 0.0 | 0.00 | 0.02 | 0.02 | 66 | 1012.1 |
| 20260903211049 | 88 | 333 | 0.0 | 0.0 | 0.00 | 0.02 | 0.02 | 66 | 1012.2 |
| 20260903210537 | 88 | 333 | 0.0 | 0.0 | 0.00 | 0.02 | 0.02 | 67 | 1012.1 |
| 20260903210047 | 88 | 333 | 0.0 | 0.0 | 0.00 | 0.02 | 0.02 | 67 | 1012.3 |
| 20260903205536 | 88 | 332 | 0.0 | 0.0 | 0.00 | 0.02 | 0.02 | 68 | 1012.3 |
| 20260903205044 | 88 | 332 | 0.0 | 0.0 | 0.00 | 0.02 | 0.02 | 68 | 1012.4 |
| 20260903204554 | 88 | 333 | 0.0 | 0.0 | 0.00 | 0.02 | 0.02 | 68 | 1012.4 |
| 20260903204043 | 88 | 331 | 0.0 | 0.0 | 0.00 | 0.02 | 0.02 | 68 | 1012.5 |
| 20260903203601 | 88 | 334 | 0.0 | 0.0 | 0.00 | 0.02 | 0.02 | 68 | 1012.5 |
| 20260903203030 | 88 | 331 | 0.0 | 0.0 | 0.00 | 0.02 | 0.02 | 68 | 1012.6 |
| 20260903202540 | 88 | 332 | 0.0 | 0.0 | 0.00 | 0.02 | 0.02 | 68 | 1012.7 |
| 20260903202047 | 88 | 333 | 0.0 | 0.0 | 0.00 | 0.02 | 0.02 | 68 | 1012.7 |
| 20260903201536 | 88 | 332 | 0.0 | 0.0 | 0.00 | 0.02 | 0.02 | 68 | 1012.8 |
| 20260903201043 | 88 | 336 | 0.0 | 0.0 | 0.00 | 0.02 | 0.02 | 69 | 1012.7 |
| 20260903200536 | 88 | 333 | 0.0 | 0.0 | 0.00 | 0.02 | 0.02 | 68 | 1012.8 |
| 20260903200030 | 87 | 333 | 0.0 | 0.0 | 0.00 | 0.02 | 0.02 | 69 | 1012.8 |
| 20260903195603 | 87 | 331 | 0.0 | 0.0 | 0.00 | 0.02 | 0.02 | 69 | 1012.8 |
| 20260903195037 | 87 | 333 | 0.0 | 0.0 | 0.00 | 0.02 | 0.02 | 70 | 1012.8 |
| 20260903194532 | 87 | 333 | 0.0 | 0.0 | 0.00 | 0.02 | 0.02 | 71 | 1012.9 |
| 20260903194040 | 86 | 332 | 0.0 | 0.0 | 0.00 | 0.02 | 0.02 | 71 | 1012.9 |
| 20260903193529 | 86 | 333 | 0.0 | 0.0 | 0.00 | 0.02 | 0.02 | 71 | 1013.0 |
| 20260903193041 | 86 | 333 | 0.0 | 0.0 | 0.00 | 0.02 | 0.02 | 71 | 1013.0 |
| 20260903192551 | 87 | 332 | 0.0 | 0.0 | 0.00 | 0.02 | 0.02 | 71 | 1013.2 |
| 20260903192038 | 87 | 333 | 0.0 | 0.0 | 0.00 | 0.02 | 0.02 | 70 | 1013.2 |
| 20260903191545 | 87 | 332 | 0.0 | 0.0 | 0.00 | 0.02 | 0.02 | 69 | 1013.4 |
| 20260903191033 | 87 | 336 | 0.0 | 0.0 | 0.00 | 0.02 | 0.02 | 70 | 1013.4 |
| 20260903190606 | 87 | 332 | 0.0 | 0.0 | 0.00 | 0.02 | 0.02 | 71 | 1013.5 |
| 20260903190055 | 86 | 332 | 0.0 | 0.0 | 0.00 | 0.02 | 0.02 | 72 | 1013.6 |
| 20260903185606 | 86 | 333 | 0.0 | 0.0 | 0.00 | 0.02 | 0.02 | 72 | 1013.6 |
| 20260903185036 | 86 | 333 | 0.0 | 0.0 | 0.00 | 0.02 | 0.02 | 72 | 1013.7 |
| 20260903184605 | 86 | 332 | 0.0 | 0.0 | 0.00 | 0.02 | 0.02 | 74 | 1013.8 |
| 20260903184045 | 85 | 332 | 0.0 | 0.0 | 0.00 | 0.02 | 0.02 | 75 | 1013.9 |
| 20260903183533 | 84 | 335 | 0.0 | 0.0 | 0.00 | 0.02 | 0.02 | 78 | 1013.9 |
| 20260903183044 | 83 | 333 | 0.0 | 0.0 | 0.00 | 0.02 | 0.02 | 78 | 1013.9 |
| 20260903182530 | 83 | 333 | 0.0 | 0.0 | 0.00 | 0.02 | 0.02 | 78 | 1014.0 |
| 20260903182104 | 84 | 333 | 0.0 | 0.0 | 0.00 | 0.02 | 0.02 | 78 | 1014.0 |
| 20260903181530 | 84 | 333 | 0.0 | 0.0 | 0.00 | 0.02 | 0.02 | 78 | 1014.1 |
| 20260903181044 | 84 | 335 | 0.0 | 0.0 | 0.00 | 0.02 | 0.02 | 77 | 1014.1 |
| 20260903180538 | 84 | 333 | 0.0 | 0.0 | 0.00 | 0.02 | 0.02 | 77 | 1014.2 |
| 20260903180032 | 84 | 334 | 0.0 | 0.0 | 0.00 | 0.02 | 0.02 | 77 | 1014.2 |
| 20260903175540 | 85 | 333 | 0.0 | 0.0 | 0.00 | 0.02 | 0.02 | 77 | 1014.3 |
| 20260903175027 | 85 | 335 | 0.0 | 0.0 | 0.00 | 0.02 | 0.02 | 78 | 1014.3 |
| 20260903174541 | 84 | 333 | 0.0 | 0.0 | 0.00 | 0.02 | 0.02 | 80 | 1014.3 |
| 20260903174033 | 83 | 333 | 0.0 | 0.0 | 0.00 | 0.02 | 0.02 | 81 | 1014.4 |
| 20260903173542 | 82 | 333 | 0.0 | 0.0 | 0.00 | 0.02 | 0.02 | 82 | 1014.4 |
| 20260903173029 | 82 | 333 | 0.0 | 0.0 | 0.00 | 0.02 | 0.02 | 82 | 1014.5 |
| 20260903172602 | 82 | 333 | 0.0 | 0.0 | 0.00 | 0.02 | 0.02 | 83 | 1014.5 |
| 20260903172038 | 81 | 333 | 0.0 | 0.0 | 0.00 | 0.02 | 0.02 | 83 | 1014.5 |
| 20260903171545 | 81 | 333 | 0.0 | 0.0 | 0.00 | 0.02 | 0.02 | 84 | 1014.5 |
| 20260903171037 | 80 | 334 | 0.0 | 0.0 | 0.00 | 0.02 | 0.02 | 84 | 1014.5 |
| 20260903170545 | 80 | 331 | 0.0 | 0.0 | 0.00 | 0.02 | 0.02 | 85 | 1014.6 |
| 20260903170033 | 80 | 333 | 0.0 | 0.0 | 0.00 | 0.02 | 0.02 | 85 | 1014.7 |
| 20260903165548 | 80 | 333 | 0.0 | 0.0 | 0.00 | 0.02 | 0.02 | 85 | 1014.7 |
| 20260903165043 | 80 | 333 | 0.0 | 0.0 | 0.00 | 0.02 | 0.02 | 85 | 1014.6 |
| 20260903164531 | 79 | 334 | 0.0 | 0.0 | 0.00 | 0.02 | 0.02 | 85 | 1014.7 |
| 20260903164037 | 79 | 333 | 0.0 | 0.0 | 0.00 | 0.02 | 0.02 | 84 | 1014.6 |
| 20260903163549 | 79 | 333 | 0.0 | 0.0 | 0.00 | 0.02 | 0.02 | 84 | 1014.6 |
| 20260903163043 | 80 | 333 | 0.0 | 0.0 | 0.00 | 0.02 | 0.02 | 84 | 1014.6 |
| 20260903162530 | 80 | 333 | 0.0 | 0.0 | 0.00 | 0.02 | 0.02 | 84 | 1014.6 |
| 20260903162058 | 80 | 332 | 0.0 | 0.0 | 0.00 | 0.02 | 0.02 | 84 | 1014.7 |
| 20260903161544 | 81 | 332 | 0.0 | 0.0 | 0.00 | 0.02 | 0.02 | 84 | 1014.6 |
| 20260903161037 | 81 | 333 | 0.0 | 0.0 | 0.00 | 0.02 | 0.02 | 83 | 1014.6 |
| 20260903160532 | 81 | 333 | 0.0 | 0.0 | 0.00 | 0.02 | 0.02 | 83 | 1014.5 |
| 20260903160043 | 82 | 334 | 0.0 | 0.0 | 0.00 | 0.02 | 0.02 | 83 | 1014.5 |
| 20260903155557 | 83 | 333 | 0.0 | 0.0 | 0.00 | 0.02 | 0.02 | 83 | 1014.4 |
| 20260903155043 | 83 | 333 | 0.0 | 0.0 | 0.00 | 0.02 | 0.02 | 83 | 1014.4 |
| 20260903154532 | 82 | 333 | 0.0 | 0.0 | 0.00 | 0.02 | 0.02 | 84 | 1014.3 |
| 20260903154042 | 82 | 333 | 0.0 | 0.0 | 0.00 | 0.02 | 0.02 | 84 | 1014.3 |
| 20260903153533 | 81 | 334 | 0.0 | 0.0 | 0.00 | 0.02 | 0.02 | 84 | 1014.3 |
| 20260903153044 | 81 | 333 | 0.0 | 0.0 | 0.00 | 0.02 | 0.02 | 85 | 1014.3 |
| 20260903152532 | 80 | 336 | 0.0 | 0.0 | 0.00 | 0.02 | 0.02 | 85 | 1014.3 |
| 20260903152043 | 80 | 333 | 0.0 | 0.0 | 0.00 | 0.02 | 0.02 | 85 | 1014.4 |
| 20260903151531 | 80 | 334 | 0.0 | 0.0 | 0.00 | 0.02 | 0.02 | 85 | 1014.3 |
| 20260903151105 | 80 | 333 | 0.0 | 0.0 | 0.00 | 0.02 | 0.02 | 85 | 1014.3 |
| 20260903150531 | 80 | 333 | 0.0 | 0.0 | 0.00 | 0.02 | 0.02 | 85 | 1014.3 |
| 20260903150039 | 80 | 332 | 0.0 | 0.0 | 0.00 | 0.02 | 0.02 | 85 | 1014.3 |
| 20260903145549 | 80 | 334 | 0.0 | 0.0 | 0.00 | 0.02 | 0.02 | 85 | 1014.3 |
| 20260903145035 | 80 | 333 | 0.0 | 0.0 | 0.00 | 0.02 | 0.02 | 85 | 1014.2 |
| 20260903144610 | 80 | 336 | 0.0 | 0.0 | 0.00 | 0.02 | 0.02 | 85 | 1014.2 |
| 20260903144103 | 79 | 333 | 0.0 | 0.0 | 0.00 | 0.02 | 0.02 | 85 | 1014.3 |
| 20260903143535 | 79 | 334 | 0.0 | 0.0 | 0.00 | 0.02 | 0.02 | 85 | 1014.3 |
| 20260903143048 | 78 | 333 | 0.0 | 0.0 | 0.00 | 0.02 | 0.02 | 85 | 1014.4 |
| 20260903142535 | 78 | 335 | 0.0 | 0.0 | 0.00 | 0.02 | 0.02 | 85 | 1014.4 |
| 20260903142047 | 78 | 334 | 0.0 | 0.0 | 0.00 | 0.02 | 0.02 | 85 | 1014.5 |
| 20260903141535 | 77 | 333 | 0.0 | 0.0 | 0.00 | 0.02 | 0.02 | 85 | 1014.5 |
| 20260903141107 | 77 | 333 | 0.0 | 0.0 | 0.00 | 0.02 | 0.02 | 85 | 1014.5 |
| 20260903140533 | 77 | 335 | 0.0 | 0.0 | 0.00 | 0.02 | 0.02 | 85 | 1014.5 |
| 20260903140048 | 77 | 333 | 0.0 | 0.0 | 0.00 | 0.02 | 0.02 | 85 | 1014.5 |
| 20260903135540 | 77 | 334 | 0.0 | 0.0 | 0.00 | 0.02 | 0.02 | 85 | 1014.6 |
| 20260903135030 | 77 | 333 | 0.0 | 0.0 | 0.00 | 0.02 | 0.02 | 85 | 1014.6 |
| 20260903134605 | 77 | 333 | 0.0 | 0.0 | 0.00 | 0.02 | 0.02 | 85 | 1014.6 |
| 20260903134030 | 77 | 333 | 0.0 | 0.0 | 0.00 | 0.02 | 0.02 | 85 | 1014.5 |
| 20260903133531 | 77 | 333 | 0.0 | 0.0 | 0.00 | 0.02 | 0.02 | 85 | 1014.4 |
| 20260903133039 | 76 | 333 | 0.0 | 0.0 | 0.00 | 0.02 | 0.02 | 85 | 1014.5 |
| 20260903132531 | 76 | 333 | 0.0 | 0.0 | 0.00 | 0.02 | 0.02 | 85 | 1014.4 |
| 20260903132041 | 76 | 333 | 0.0 | 0.0 | 0.00 | 0.02 | 0.02 | 85 | 1014.3 |
| 20260903131536 | 76 | 334 | 0.0 | 0.0 | 0.00 | 0.02 | 0.02 | 85 | 1014.3 |
| 20260903131042 | 76 | 333 | 0.0 | 0.0 | 0.00 | 0.02 | 0.02 | 85 | 1014.3 |
| 20260903130533 | 76 | 335 | 0.0 | 0.0 | 0.00 | 0.02 | 0.02 | 85 | 1014.3 |
| 20260903130031 | 76 | 333 | 0.0 | 0.0 | 0.00 | 0.02 | 0.02 | 85 | 1014.2 |
| 20260903125539 | 76 | 333 | 0.0 | 0.0 | 0.00 | 0.02 | 0.02 | 85 | 1014.2 |
| 20260903125027 | 76 | 333 | 0.0 | 0.0 | 0.00 | 0.02 | 0.02 | 85 | 1014.2 |
| 20260903124538 | 76 | 334 | 0.0 | 0.0 | 0.00 | 0.02 | 0.02 | 85 | 1014.1 |
| 20260903124046 | 76 | 333 | 0.0 | 0.0 | 0.00 | 0.02 | 0.02 | 85 | 1014.1 |
| 20260903123558 | 76 | 332 | 0.0 | 0.0 | 0.00 | 0.02 | 0.02 | 85 | 1014.1 |
| 20260903123030 | 76 | 333 | 0.0 | 0.0 | 0.00 | 0.02 | 0.02 | 85 | 1014.1 |
| 20260903122543 | 76 | 333 | 0.0 | 0.0 | 0.00 | 0.02 | 0.02 | 85 | 1014.0 |
| 20260903122037 | 76 | 333 | 0.0 | 0.0 | 0.00 | 0.02 | 0.02 | 85 | 1014.0 |
| 20260903121529 | 76 | 333 | 0.0 | 0.0 | 0.00 | 0.02 | 0.02 | 85 | 1013.9 |
| 20260903121038 | 76 | 333 | 0.0 | 0.0 | 0.00 | 0.02 | 0.02 | 85 | 1013.8 |
| 20260903120549 | 76 | 333 | 0.0 | 0.0 | 0.00 | 0.02 | 0.02 | 85 | 1013.9 |
| 20260903120043 | 76 | 333 | 0.0 | 0.0 | 0.00 | 0.02 | 0.02 | 85 | 1013.8 |
| 20260903115536 | 76 | 333 | 0.0 | 0.0 | 0.00 | 0.02 | 0.02 | 85 | 1013.8 |
| 20260903115048 | 76 | 333 | 0.0 | 0.0 | 0.01 | 0.02 | 0.02 | 85 | 1013.7 |
| 20260903114534 | 76 | 333 | 0.0 | 0.0 | 0.01 | 0.02 | 0.02 | 85 | 1013.8 |
| 20260903114032 | 76 | 334 | 0.0 | 0.0 | 0.01 | 0.02 | 0.02 | 85 | 1013.8 |
| 20260903113541 | 76 | 334 | 0.0 | 0.0 | 0.01 | 0.02 | 0.02 | 85 | 1013.7 |
| 20260903113031 | 76 | 333 | 0.0 | 0.0 | 0.01 | 0.02 | 0.02 | 85 | 1013.8 |
| 20260903112606 | 76 | 333 | 0.0 | 0.0 | 0.01 | 0.02 | 0.02 | 85 | 1013.7 |
| 20260903112051 | 76 | 334 | 0.0 | 0.0 | 0.01 | 0.02 | 0.02 | 85 | 1013.7 |
| 20260903111605 | 76 | 334 | 0.0 | 0.0 | 0.01 | 0.02 | 0.02 | 85 | 1013.6 |
| 20260903111035 | 76 | 333 | 0.0 | 0.0 | 0.02 | 0.02 | 0.02 | 85 | 1013.7 |
| 20260903110545 | 76 | 333 | 0.0 | 0.0 | 0.02 | 0.02 | 0.02 | 85 | 1013.6 |
| 20260903110056 | 76 | 333 | 0.0 | 0.0 | 0.02 | 0.02 | 0.02 | 85 | 1013.5 |
| 20260903105544 | 76 | 334 | 0.0 | 0.0 | 0.02 | 0.02 | 0.02 | 85 | 1013.4 |
| 20260903105031 | 76 | 333 | 0.0 | 0.0 | 0.01 | 0.01 | 0.01 | 85 | 1013.3 |
| 20260903104559 | 76 | 333 | 0.0 | 0.0 | 0.01 | 0.01 | 0.01 | 85 | 1013.3 |
| 20260903104049 | 76 | 334 | 0.0 | 0.0 | 0.01 | 0.01 | 0.01 | 85 | 1013.3 |
| 20260903103541 | 76 | 334 | 0.0 | 0.0 | 0.01 | 0.01 | 0.01 | 85 | 1013.2 |
| 20260903103027 | 76 | 334 | 0.0 | 0.0 | 0.01 | 0.01 | 0.01 | 85 | 1013.2 |
| 20260903102537 | 76 | 335 | 0.0 | 0.0 | 0.01 | 0.01 | 0.01 | 85 | 1013.2 |
| 20260903102028 | 76 | 334 | 0.0 | 0.0 | 0.01 | 0.01 | 0.01 | 85 | 1013.2 |
| 20260903101539 | 76 | 333 | 0.0 | 0.0 | 0.01 | 0.01 | 0.01 | 85 | 1013.2 |
| 20260903101048 | 76 | 333 | 0.0 | 0.0 | 0.00 | 0.00 | 0.00 | 85 | 1013.1 |
| 20260903100540 | 76 | 333 | 0.0 | 0.0 | 0.00 | 0.00 | 0.00 | 85 | 1013.2 |
| 20260903100031 | 76 | 333 | 0.0 | 0.0 | 0.00 | 0.00 | 0.00 | 85 | 1013.2 |
| 20260903095540 | 76 | 334 | 0.0 | 0.0 | 0.00 | 0.00 | 0.00 | 85 | 1013.2 |
| 20260903095030 | 76 | 333 | 0.0 | 0.0 | 0.00 | 0.00 | 0.00 | 85 | 1013.1 |
| 20260903094544 | 77 | 333 | 0.0 | 0.0 | 0.00 | 0.00 | 0.00 | 85 | 1013.1 |
| 20260903094032 | 77 | 333 | 0.0 | 0.0 | 0.00 | 0.00 | 0.00 | 84 | 1013.1 |
| 20260903093538 | 77 | 333 | 0.0 | 0.0 | 0.00 | 0.00 | 0.00 | 84 | 1013.2 |
| 20260903093054 | 78 | 332 | 0.0 | 0.0 | 0.00 | 0.00 | 0.00 | 84 | 1013.3 |
| 20260903092545 | 78 | 333 | 0.0 | 0.0 | 0.00 | 0.00 | 0.00 | 83 | 1013.3 |
| 20260903092038 | 78 | 333 | 0.0 | 0.0 | 0.00 | 0.00 | 0.00 | 83 | 1013.3 |
| 20260903091532 | 78 | 333 | 0.0 | 0.0 | 0.00 | 0.00 | 0.00 | 83 | 1013.3 |
| 20260903091044 | 78 | 333 | 0.0 | 0.0 | 0.00 | 0.00 | 0.00 | 83 | 1013.4 |
| 20260903090532 | 78 | 333 | 0.0 | 0.0 | 0.00 | 0.00 | 0.00 | 83 | 1013.4 |
| 20260903090040 | 78 | 333 | 0.0 | 0.0 | 0.00 | 0.00 | 0.00 | 83 | 1013.3 |
| 20260903085548 | 78 | 333 | 0.0 | 0.0 | 0.00 | 0.00 | 0.00 | 83 | 1013.4 |
| 20260903085055 | 78 | 334 | 0.0 | 0.0 | 0.00 | 0.00 | 0.00 | 83 | 1013.3 |
| 20260903084529 | 78 | 333 | 0.0 | 0.0 | 0.00 | 0.00 | 0.00 | 83 | 1013.3 |
| 20260903084040 | 78 | 333 | 0.0 | 0.0 | 0.00 | 0.00 | 0.00 | 82 | 1013.2 |
| 20260903083550 | 78 | 333 | 0.0 | 0.0 | 0.00 | 0.00 | 0.00 | 82 | 1013.3 |
| 20260903083038 | 78 | 333 | 0.0 | 0.0 | 0.00 | 0.00 | 0.00 | 82 | 1013.2 |
| 20260903082546 | 78 | 333 | 0.0 | 0.0 | 0.00 | 0.00 | 0.00 | 82 | 1013.2 |
| 20260903082038 | 79 | 333 | 0.0 | 0.0 | 0.00 | 0.00 | 0.00 | 82 | 1013.3 |
| 20260903081547 | 79 | 333 | 0.0 | 0.0 | 0.00 | 0.00 | 0.00 | 82 | 1013.2 |
| 20260903081101 | 79 | 334 | 0.0 | 0.0 | 0.00 | 0.00 | 0.00 | 81 | 1013.2 |
| 20260903080554 | 79 | 333 | 0.0 | 0.0 | 0.00 | 0.00 | 0.00 | 81 | 1013.2 |
| 20260903080043 | 79 | 333 | 0.0 | 0.0 | 0.00 | 0.00 | 0.00 | 81 | 1013.1 |
| 20260903075550 | 79 | 333 | 0.0 | 0.0 | 0.00 | 0.00 | 0.00 | 81 | 1013.2 |
| 20260903075103 | 79 | 333 | 0.0 | 0.0 | 0.00 | 0.00 | 0.00 | 81 | 1013.1 |
| 20260903074530 | 79 | 333 | 0.0 | 0.0 | 0.00 | 0.00 | 0.00 | 80 | 1013.1 |
| 20260903074105 | 79 | 333 | 0.0 | 0.0 | 0.00 | 0.00 | 0.00 | 80 | 1013.2 |
| 20260903073531 | 79 | 333 | 0.0 | 0.0 | 0.00 | 0.00 | 0.00 | 80 | 1013.2 |
| 20260903073103 | 79 | 333 | 0.0 | 0.0 | 0.00 | 0.00 | 0.00 | 79 | 1013.2 |
| 20260903072529 | 80 | 333 | 0.0 | 0.0 | 0.00 | 0.00 | 0.00 | 79 | 1013.4 |
| 20260903072045 | 80 | 331 | 0.0 | 0.0 | 0.00 | 0.00 | 0.00 | 78 | 1013.4 |
| 20260903071535 | 80 | 333 | 0.0 | 0.0 | 0.00 | 0.00 | 0.00 | 78 | 1013.3 |
| 20260903071042 | 80 | 336 | 0.0 | 0.0 | 0.00 | 0.00 | 0.00 | 78 | 1013.3 |
| 20260903070549 | 80 | 333 | 0.0 | 0.0 | 0.00 | 0.00 | 0.00 | 78 | 1013.3 |
| 20260903070039 | 80 | 332 | 0.0 | 0.0 | 0.00 | 0.00 | 0.00 | 78 | 1013.3 |
| 20260903065609 | 80 | 332 | 0.0 | 0.0 | 0.00 | 0.00 | 0.00 | 78 | 1013.4 |
| 20260903065102 | 80 | 333 | 0.0 | 0.0 | 0.00 | 0.00 | 0.00 | 78 | 1013.4 |
| 20260903064532 | 80 | 334 | 0.0 | 0.0 | 0.00 | 0.00 | 0.00 | 78 | 1013.4 |
| 20260903064102 | 80 | 333 | 0.0 | 0.0 | 0.00 | 0.00 | 0.00 | 77 | 1013.4 |
| 20260903063531 | 80 | 333 | 0.0 | 0.0 | 0.00 | 0.00 | 0.00 | 77 | 1013.4 |
| 20260903063058 | 80 | 333 | 0.0 | 0.0 | 0.00 | 0.00 | 0.00 | 77 | 1013.5 |
| 20260903062548 | 80 | 332 | 0.0 | 0.0 | 0.00 | 0.00 | 0.00 | 77 | 1013.5 |
| 20260903062039 | 80 | 332 | 0.0 | 0.0 | 0.00 | 0.00 | 0.00 | 77 | 1013.6 |
| 20260903061536 | 80 | 332 | 0.0 | 0.0 | 0.00 | 0.00 | 0.00 | 77 | 1013.6 |
| 20260903061106 | 80 | 333 | 0.0 | 0.0 | 0.00 | 0.00 | 0.00 | 77 | 1013.7 |
| 20260903060537 | 80 | 333 | 0.0 | 0.0 | 0.00 | 0.00 | 0.00 | 77 | 1013.7 |
| 20260903060046 | 80 | 334 | 0.0 | 0.0 | 0.00 | 0.00 | 0.00 | 77 | 1013.7 |
| 20260903055536 | 80 | 333 | 0.0 | 0.0 | 0.00 | 0.00 | 0.00 | 76 | 1013.8 |
| 20260903055047 | 80 | 333 | 0.0 | 0.0 | 0.00 | 0.00 | 0.00 | 76 | 1013.9 |
| 20260903054535 | 80 | 333 | 0.0 | 0.0 | 0.00 | 0.00 | 0.00 | 76 | 1013.9 |
| 20260903054049 | 80 | 333 | 0.0 | 0.0 | 0.00 | 0.00 | 0.00 | 76 | 1014.0 |
| 20260903053537 | 81 | 333 | 0.0 | 0.0 | 0.00 | 0.00 | 0.00 | 75 | 1014.1 |
| 20260903053047 | 81 | 332 | 0.0 | 0.0 | 0.00 | 0.00 | 0.00 | 75 | 1014.2 |
| 20260903052534 | 81 | 332 | 0.0 | 0.0 | 0.00 | 0.00 | 0.00 | 75 | 1014.3 |
| 20260903052046 | 81 | 333 | 0.0 | 0.0 | 0.00 | 0.00 | 0.00 | 74 | 1014.2 |
| 20260903051556 | 81 | 333 | 0.0 | 0.0 | 0.00 | 0.00 | 0.00 | 74 | 1014.3 |
| 20260903051047 | 82 | 333 | 0.0 | 0.0 | 0.00 | 0.00 | 0.00 | 73 | 1014.3 |
| 20260903050538 | 82 | 333 | 0.0 | 0.0 | 0.00 | 0.00 | 0.00 | 72 | 1014.3 |
| 20260903050045 | 82 | 333 | 0.0 | 0.0 | 0.00 | 0.00 | 0.00 | 72 | 1014.3 |
| 20260903045533 | 82 | 333 | 0.0 | 0.0 | 0.00 | 0.00 | 0.00 | 71 | 1014.3 |
| 20260903045047 | 83 | 333 | 0.0 | 0.0 | 0.00 | 0.00 | 0.00 | 70 | 1014.3 |
| 20260903044539 | 83 | 333 | 0.0 | 0.0 | 0.00 | 0.00 | 0.00 | 69 | 1014.2 |
| 20260903044040 | 83 | 333 | 0.0 | 0.0 | 0.00 | 0.00 | 0.00 | 68 | 1014.0 |
| 20260903043547 | 83 | 331 | 0.0 | 0.0 | 0.00 | 0.00 | 0.00 | 68 | 1014.0 |
| 20260903043036 | 84 | 331 | 0.0 | 0.0 | 0.00 | 0.00 | 0.00 | 68 | 1014.0 |
| 20260903042544 | 84 | 332 | 0.0 | 0.0 | 0.00 | 0.00 | 0.00 | 67 | 1014.0 |
| 20260903042030 | 84 | 331 | 0.0 | 0.0 | 0.00 | 0.00 | 0.00 | 67 | 1014.0 |
| 20260903041601 | 84 | 332 | 0.0 | 0.0 | 0.00 | 0.00 | 0.00 | 67 | 1014.1 |
| 20260903041028 | 84 | 333 | 0.0 | 0.0 | 0.00 | 0.00 | 0.00 | 66 | 1014.1 |
| 20260903040604 | 84 | 332 | 0.0 | 0.0 | 0.00 | 0.00 | 0.00 | 66 | 1014.1 |
| 20260903040035 | 85 | 333 | 0.0 | 0.0 | 0.00 | 0.00 | 0.00 | 66 | 1014.0 |
| 20260903035546 | 85 | 331 | 0.0 | 0.0 | 0.00 | 0.00 | 0.00 | 65 | 1014.1 |
| 20260903035034 | 85 | 332 | 0.0 | 0.0 | 0.00 | 0.00 | 0.00 | 65 | 1014.0 |
| 20260903034542 | 85 | 332 | 0.0 | 0.0 | 0.00 | 0.00 | 0.00 | 65 | 1014.0 |
| 20260903034033 | 85 | 332 | 0.0 | 0.0 | 0.00 | 0.00 | 0.00 | 65 | 1014.0 |
| 20260903033539 | 85 | 333 | 0.0 | 0.0 | 0.00 | 0.00 | 0.00 | 65 | 1014.0 |
| 20260903033045 | 86 | 333 | 0.0 | 0.0 | 0.00 | 0.00 | 0.00 | 64 | 1014.0 |
| 20260903032537 | 86 | 333 | 0.0 | 0.0 | 0.00 | 0.00 | 0.00 | 64 | 1014.1 |
| 20260903032030 | 86 | 333 | 0.0 | 0.0 | 0.00 | 0.00 | 0.00 | 64 | 1014.0 |
| 20260903031540 | 86 | 333 | 0.0 | 0.0 | 0.00 | 0.00 | 0.00 | 63 | 1014.1 |
| 20260903031030 | 86 | 332 | 0.0 | 0.0 | 0.00 | 0.00 | 0.00 | 63 | 1013.9 |
| 20260903030539 | 87 | 333 | 0.0 | 0.0 | 0.00 | 0.00 | 0.00 | 62 | 1014.0 |
| 20260903030045 | 87 | 332 | 0.0 | 0.0 | 0.00 | 0.00 | 0.00 | 62 | 1013.8 |
| 20260903025559 | 87 | 331 | 0.0 | 0.0 | 0.00 | 0.00 | 0.00 | 61 | 1013.8 |
| 20260903025046 | 88 | 332 | 0.0 | 0.0 | 0.00 | 0.00 | 0.00 | 61 | 1013.7 |
| 20260903024537 | 88 | 333 | 0.0 | 0.0 | 0.00 | 0.00 | 0.00 | 60 | 1013.8 |
| 20260903024049 | 88 | 333 | 0.0 | 0.0 | 0.00 | 0.00 | 0.00 | 60 | 1013.7 |
| 20260903023536 | 88 | 333 | 0.0 | 0.0 | 0.00 | 0.00 | 0.00 | 59 | 1013.7 |
| 20260903023044 | 88 | 332 | 0.0 | 0.0 | 0.00 | 0.00 | 0.00 | 59 | 1013.5 |
| 20260903022541 | 88 | 332 | 0.0 | 0.0 | 0.00 | 0.00 | 0.00 | 59 | 1013.3 |
| 20260903022049 | 88 | 332 | 0.0 | 0.0 | 0.00 | 0.00 | 0.00 | 59 | 1013.2 |
| 20260903021604 | 89 | 331 | 0.0 | 0.0 | 0.00 | 0.00 | 0.00 | 58 | 1013.1 |
| 20260903021037 | 89 | 332 | 0.0 | 0.0 | 0.00 | 0.00 | 0.00 | 58 | 1013.1 |
| 20260903020532 | 89 | 331 | 0.0 | 0.0 | 0.00 | 0.00 | 0.00 | 58 | 1013.0 |
| 20260903020043 | 89 | 331 | 0.0 | 0.0 | 0.00 | 0.00 | 0.00 | 58 | 1012.9 |
| 20260903015530 | 89 | 333 | 0.0 | 0.0 | 0.00 | 0.00 | 0.00 | 57 | 1012.8 |
| 20260903015041 | 89 | 332 | 0.0 | 0.0 | 0.00 | 0.00 | 0.00 | 57 | 1012.8 |
| 20260903014549 | 90 | 331 | 0.0 | 0.0 | 0.00 | 0.00 | 0.00 | 57 | 1012.7 |
| 20260903014057 | 90 | 332 | 0.0 | 0.0 | 0.00 | 0.00 | 0.00 | 57 | 1012.7 |
| 20260903013544 | 90 | 332 | 0.0 | 0.0 | 0.00 | 0.00 | 0.00 | 56 | 1012.6 |
| 20260903013031 | 90 | 331 | 0.0 | 0.0 | 0.00 | 0.00 | 0.00 | 56 | 1012.6 |
| 20260903012545 | 90 | 331 | 0.0 | 0.0 | 0.00 | 0.00 | 0.00 | 56 | 1012.6 |
| 20260903012052 | 91 | 331 | 0.0 | 0.0 | 0.00 | 0.00 | 0.00 | 57 | 1012.6 |
| 20260903011542 | 91 | 332 | 0.0 | 0.0 | 0.00 | 0.00 | 0.00 | 57 | 1012.5 |
| 20260903011037 | 91 | 332 | 0.0 | 0.0 | 0.00 | 0.00 | 0.00 | 57 | 1012.5 |
| 20260903010548 | 91 | 332 | 0.0 | 0.0 | 0.00 | 0.00 | 0.00 | 56 | 1012.4 |
| 20260903010036 | 92 | 331 | 0.0 | 0.0 | 0.00 | 0.00 | 0.00 | 56 | 1012.3 |
| 20260903005545 | 92 | 331 | 0.0 | 0.0 | 0.00 | 0.00 | 0.00 | 56 | 1012.4 |
| 20260903005035 | 92 | 331 | 0.0 | 0.0 | 0.00 | 0.00 | 0.00 | 55 | 1012.4 |
| 20260903004529 | 92 | 331 | 0.0 | 0.0 | 0.00 | 0.00 | 0.00 | 55 | 1012.3 |
| 20260903004102 | 92 | 331 | 0.0 | 0.0 | 0.00 | 0.00 | 0.00 | 55 | 1012.3 |
| 20260903003549 | 92 | 331 | 0.0 | 0.0 | 0.00 | 0.00 | 0.00 | 54 | 1012.3 |
| 20260903003057 | 93 | 331 | 0.0 | 0.0 | 0.00 | 0.00 | 0.00 | 54 | 1012.2 |
| 20260903002607 | 94 | 330 | 0.0 | 0.0 | 0.00 | 0.00 | 0.00 | 52 | 1012.2 |
| 20260903002032 | 94 | 331 | 0.0 | 0.0 | 0.00 | 0.00 | 0.00 | 50 | 1012.1 |
| 20260903001527 | 94 | 331 | 0.0 | 0.0 | 0.00 | 0.00 | 0.00 | 49 | 1012.0 |
| 20260903001038 | 95 | 331 | 0.0 | 0.0 | 0.00 | 0.00 | 0.00 | 49 | 1012.1 |
| 20260903000546 | 95 | 331 | 0.0 | 0.0 | 0.00 | 0.00 | 0.00 | 49 | 1012.0 |
| 20260903000037 | 95 | 331 | 0.0 | 0.0 | 0.00 | 0.00 | 0.00 | 49 | 1012.0 |
| 20260902235551 | 95 | 331 | 0.0 | 0.0 | 0.00 | 0.00 | 0.00 | 49 | 1012.0 |
| 20260902235106 | 96 | 331 | 0.0 | 0.0 | 0.00 | 0.00 | 0.00 | 48 | 1012.0 |
| 20260902234537 | 96 | 331 | 0.0 | 0.0 | 0.00 | 0.00 | 0.00 | 47 | 1011.9 |
| 20260902234050 | 97 | 331 | 0.0 | 0.0 | 0.00 | 0.00 | 0.00 | 46 | 1011.9 |
| 20260902233536 | 97 | 331 | 0.0 | 0.0 | 0.00 | 0.00 | 0.00 | 46 | 1011.9 |
| 20260902233110 | 97 | 331 | 0.0 | 0.0 | 0.00 | 0.00 | 0.00 | 45 | 1011.8 |
| 20260902232541 | 97 | 330 | 0.0 | 0.0 | 0.00 | 0.00 | 0.00 | 45 | 1011.8 |
| 20260902232049 | 97 | 329 | 0.0 | 0.0 | 0.00 | 0.00 | 0.00 | 45 | 1011.8 |
| 20260902231542 | 97 | 331 | 0.0 | 0.0 | 0.00 | 0.00 | 0.00 | 45 | 1011.8 |
| 20260902231032 | 97 | 331 | 0.0 | 0.0 | 0.00 | 0.00 | 0.00 | 44 | 1011.9 |
| 20260902230539 | 97 | 331 | 0.0 | 0.0 | 0.00 | 0.00 | 0.00 | 44 | 1011.9 |
| 20260902230049 | 98 | 331 | 0.0 | 0.0 | 0.00 | 0.00 | 0.00 | 44 | 1011.9 |
| 20260902225601 | 98 | 329 | 0.0 | 0.0 | 0.00 | 0.00 | 0.00 | 43 | 1011.9 |
| 20260902225027 | 98 | 331 | 0.0 | 0.0 | 0.00 | 0.00 | 0.00 | 42 | 1011.9 |